Simultaneous Nadir Overpasses (SNOs) Predictions

Prediction of SNOs between GOES-15 and METOP-A Satellite Orbit:

Table of predicted SNOs for the next 14.0 days since TLE Epoch: 10/31/2020
Index Date Time (GOES-15) GOES-15 Lat,Lon METOP-A Lat,Lon Distance(km) Time Diff (sec)
1 11/01/2020 17:13:21 0.17,-128.05 0.76,-130.65 297.18 80
2 11/02/2020 16:50:02 0.17,-128.02 -0.34,-125.67 266.67 80
3 11/04/2020 05:11:42 -0.18,-128.00 -0.70,-130.30 263.36 80
4 11/05/2020 04:48:22 -0.18,-127.96 0.40,-125.33 300.14 80
5 11/06/2020 17:09:54 0.19,-127.88 0.67,-129.91 231.97 80
6 11/07/2020 16:46:34 0.19,-127.85 -0.43,-124.93 331.11 80
7 11/09/2020 05:05:35 -0.20,-127.81 -0.60,-129.57 200.20 80
8 11/10/2020 04:44:55 -0.20,-127.77 0.50,-124.59 362.68 80
9 11/11/2020 17:06:27 0.20,-127.69 0.50,-129.19 170.25 80
10 11/12/2020 16:43:07 0.20,-127.65 -0.54,-124.20 392.33 80
